Weather History for KIKV - April, 2014

Change the Weather History Date:

Sunday, April 13, 2014

  Actual Average (KDSM) Record (KDSM)
Temperature  
Mean Temperature 48 °F 51 °F  
Max Temperature 60 °F 62 °F 89 °F (1883)
Min Temperature 35 °F 40 °F 11 °F (1881)
Degree Days  
Heating Degree Days 18 15  
Month to date heating degree days 219  
Since 1 July heating degree days 5846  
Cooling Degree Days 0 0  
Month to date cooling degree days 0  
Year to date cooling degree days 1  
Moisture  
Dew Point 47 °F    
Average Humidity 95    
Maximum Humidity 100    
Minimum Humidity 87    
Precipitation  
Precipitation 1.22 in 0.13 in 1.69 in (2014)
Month to date precipitation 1.40  
Year to date precipitation 5.98  
Snow  
Snow 0.00 in 0.00 in 3.30 in (1952)
Month to date snowfall 1.1  
Since 1 July snowfall 34.6  
Snow Depth -    
Sea Level Pressure  
Sea Level Pressure 29.62 in    
Wind  
Wind Speed 14 mph (NNE)    
Max Wind Speed 33 mph    
Max Gust Speed 45 mph    
Visibility 5 miles    
Events Rain    
T = Trace of Precipitation, MM = Missing Value Source: NWS Daily Summary

Daily Weather History Graph

Daily Weather History Graph

Search for Another Location

Airport or City:

Trip Planner

Search our weather history database for the weather conditions in past years. The results will help you decide how hot, cold, wet, or windy it might be!

Date:

Astronomy

Apr. 13, 2014 Rise Set
Actual Time 6:37 AM CDT 7:52 PM CDT
Civil Twilight 6:08 AM CDT 8:21 PM CDT
Nautical Twilight 5:34 AM CDT 8:56 PM CDT
Astronomical Twilight 4:58 AM CDT 9:32 PM CDT
Moon 6:30 PM CDT (4/13) 5:37 AM CDT (4/13)
Length of Visible Light 14h 12m
Length of Day
13h 15m
Waxing Gibbous, 97% of the Moon is Illuminated
Apr 13
Waxing Gibbous
Apr 15
Full
Apr 22
Last Quarter
Apr 29
New
May 6
First Quarter

Hourly Weather History & Observations

Time (CDT) Temp. Windchill Dew Point Humidity Pressure Visibility Wind Dir Wind Speed Gust Speed Precip Events Conditions
12:15 AM 60.8 °F - 59.0 °F 94% 29.63 in 9.0 mi South 8.1 mph - N/A   Mostly Cloudy
12:35 AM 59.0 °F - 57.2 °F 94% 29.63 in 10.0 mi ENE 4.6 mph - N/A   Overcast
12:55 AM 59.0 °F - 57.2 °F 94% 29.63 in 10.0 mi NNW 9.2 mph - N/A   Overcast
1:15 AM 59.0 °F - 57.2 °F 94% 29.61 in 9.0 mi ENE 13.8 mph - N/A Rain Light Rain
1:35 AM 59.0 °F - 57.2 °F 94% 29.60 in 10.0 mi East 10.4 mph 18.4 mph N/A   Overcast
1:55 AM 59.0 °F - 57.2 °F 94% 29.60 in 9.0 mi East 9.2 mph 16.1 mph 0.01 in Rain Light Rain
2:15 AM 59.0 °F - 57.2 °F 94% 29.60 in 9.0 mi East 6.9 mph - N/A Rain Light Rain
2:35 AM 59.0 °F - 57.2 °F 94% 29.59 in 10.0 mi ESE 4.6 mph 11.5 mph N/A   Overcast
2:55 AM 59.0 °F - 57.2 °F 94% 29.62 in 10.0 mi North 11.5 mph - 0.02 in   Overcast
3:15 AM 57.2 °F - 55.4 °F 94% 29.61 in 10.0 mi NNE 8.1 mph - N/A   Overcast
3:35 AM 57.2 °F - 55.4 °F 94% 29.61 in 9.0 mi NE 5.8 mph - N/A   Overcast
3:55 AM 57.2 °F - 55.4 °F 94% 29.61 in 8.0 mi Variable 4.6 mph 12.7 mph N/A   Mostly Cloudy
4:15 AM 57.2 °F - 55.4 °F 94% 29.62 in 6.0 mi North 4.6 mph - N/A   Light Drizzle
4:35 AM 57.2 °F - 55.4 °F 94% 29.62 in 8.0 mi North 8.1 mph - N/A   Light Drizzle
4:55 AM 57.2 °F - 55.4 °F 94% 29.62 in 8.0 mi NNE 5.8 mph - 0.01 in   Overcast
5:15 AM 57.2 °F - 55.4 °F 94% 29.63 in 5.0 mi Variable 5.8 mph - N/A   Overcast
5:35 AM 57.2 °F - 55.4 °F 94% 29.67 in 4.0 mi North 6.9 mph - N/A Rain Light Rain
5:55 AM 55.4 °F - 55.4 °F 100% 29.66 in 4.0 mi North 10.4 mph - 0.09 in   Overcast
6:15 AM 55.4 °F - 55.4 °F 100% 29.66 in 4.0 mi North 9.2 mph - N/A Rain Light Rain
6:35 AM 53.6 °F - 53.6 °F 100% 29.65 in 4.0 mi NNE 12.7 mph - N/A   Light Drizzle
6:55 AM 51.8 °F - 51.8 °F 100% 29.66 in 4.0 mi North 12.7 mph - 0.09 in Rain Light Rain
7:15 AM 51.8 °F - 50.0 °F 94% 29.65 in 2.5 mi NNE 13.8 mph - N/A Rain Light Rain
7:35 AM 50.0 °F - 50.0 °F 100% 29.65 in 2.0 mi North 15.0 mph - N/A   Overcast
7:55 AM 50.0 °F - 48.2 °F 94% 29.63 in 2.5 mi North 17.3 mph - N/A   Overcast
8:15 AM 48.2 °F - 48.2 °F 100% 29.66 in 1.5 mi North 13.8 mph 19.6 mph N/A   Overcast
8:35 AM 48.2 °F - 48.2 °F 100% 29.65 in 1.5 mi North 17.3 mph - N/A   Overcast
8:55 AM 48.2 °F - 48.2 °F 100% 29.66 in 1.2 mi NNE 15.0 mph - 0.01 in Rain Light Rain
9:15 AM 48.2 °F - 48.2 °F 100% 29.66 in 1.2 mi NNE 20.7 mph - N/A Rain Light Rain
9:55 AM 46.4 °F 39.8 °F 46.4 °F 100% 29.69 in 2.0 mi NNE 16.1 mph - 0.08 in Rain Light Rain
10:15 AM 46.4 °F 40.1 °F 46.4 °F 100% 29.69 in 2.5 mi NNE 15.0 mph 21.9 mph N/A Rain Light Rain
10:35 AM 46.4 °F 39.0 °F 46.4 °F 100% 29.66 in 2.0 mi NNE 19.6 mph - N/A Rain Rain
10:55 AM 46.4 °F 39.0 °F 46.4 °F 100% 29.65 in 3.0 mi NNE 19.6 mph 26.5 mph 0.11 in Rain Light Rain
11:15 AM 46.4 °F 39.5 °F 46.4 °F 100% 29.65 in 5.0 mi NNE 17.3 mph 27.6 mph N/A Rain Light Rain
11:35 AM 46.4 °F 40.7 °F 46.4 °F 100% 29.66 in 5.0 mi NNE 12.7 mph 23.0 mph N/A Rain Light Rain
11:55 AM 46.4 °F 40.1 °F 44.6 °F 93% 29.63 in 3.0 mi NE 15.0 mph - 0.03 in Rain Light Rain
12:15 PM 46.4 °F 40.1 °F 44.6 °F 93% 29.61 in 3.0 mi NNE 15.0 mph 24.2 mph N/A Rain Light Rain
12:35 PM 46.4 °F 39.5 °F 44.6 °F 93% 29.62 in 2.5 mi NNE 17.3 mph 24.2 mph N/A Rain Heavy Rain
12:55 PM 46.4 °F 39.2 °F 44.6 °F 93% 29.60 in 3.0 mi NNE 18.4 mph 26.5 mph 0.11 in Rain Light Rain
1:15 PM 46.4 °F 38.5 °F 44.6 °F 93% 29.60 in 3.0 mi North 21.9 mph 28.8 mph N/A Rain Light Rain
1:35 PM 46.4 °F 39.0 °F 44.6 °F 93% 29.61 in 2.0 mi North 19.6 mph 29.9 mph N/A Rain Rain
1:55 PM 44.6 °F 36.9 °F 44.6 °F 100% 29.58 in 3.0 mi NNE 18.4 mph 27.6 mph 0.07 in Rain Rain
2:15 PM 44.6 °F 35.9 °F 44.6 °F 100% 29.57 in 3.0 mi North 23.0 mph 29.9 mph N/A Rain Rain
2:35 PM 44.6 °F 36.4 °F 44.6 °F 100% 29.56 in 3.0 mi NNE 20.7 mph - N/A Rain Light Rain
2:55 PM 44.6 °F 36.9 °F 44.6 °F 100% 29.56 in 2.5 mi North 18.4 mph 28.8 mph 0.09 in Rain Heavy Rain
3:15 PM 44.6 °F 35.9 °F 44.6 °F 100% 29.54 in 3.0 mi North 23.0 mph - N/A Rain Rain
3:35 PM 44.6 °F 35.7 °F 44.6 °F 100% 29.55 in 4.0 mi North 24.2 mph - N/A Rain Light Rain
3:55 PM 46.4 °F 37.4 °F 44.6 °F 93% 29.54 in 4.0 mi North 28.8 mph 35.7 mph 0.07 in Rain Light Rain
4:35 PM 46.4 °F 37.4 °F 44.6 °F 93% 29.55 in 1.8 mi North 28.8 mph 36.8 mph N/A Rain Rain
4:55 PM 44.6 °F 34.7 °F 42.8 °F 93% 29.54 in 2.0 mi North 29.9 mph 36.8 mph 0.09 in Rain Rain
5:15 PM 44.6 °F 34.6 °F 42.8 °F 93% 29.54 in 2.0 mi North 31.1 mph 36.8 mph N/A   Mostly Cloudy
5:35 PM 44.6 °F 35.1 °F 42.8 °F 93% 29.55 in 3.0 mi North 27.6 mph 35.7 mph N/A   Overcast
5:55 PM 44.6 °F 36.1 °F 42.8 °F 93% 29.57 in 2.0 mi North 21.9 mph 39.1 mph 0.08 in   Overcast
6:15 PM 42.8 °F 33.5 °F 42.8 °F 100% 29.57 in 1.0 mi North 23.0 mph 39.1 mph N/A   Mostly Cloudy
6:35 PM 42.8 °F 33.3 °F 42.8 °F 100% 29.57 in 2.5 mi North 24.2 mph 32.2 mph N/A Rain Rain
6:55 PM 42.8 °F 32.3 °F 41.0 °F 93% 29.58 in 4.0 mi North 29.9 mph 41.4 mph 0.18 in   Overcast
7:15 PM 42.8 °F 32.7 °F 41.0 °F 93% 29.59 in 5.0 mi North 27.6 mph 34.5 mph N/A Rain Light Rain
7:35 PM 42.8 °F 32.3 °F 41.0 °F 93% 29.59 in 3.0 mi North 29.9 mph 40.3 mph N/A   Overcast
7:55 PM 41.0 °F 30.0 °F 39.2 °F 93% 29.59 in 4.0 mi North 28.8 mph 35.7 mph 0.02 in Rain Light Rain
8:15 PM 41.0 °F 29.8 °F 39.2 °F 93% 29.59 in 4.0 mi North 29.9 mph 39.1 mph N/A Rain Light Rain
8:35 PM 41.0 °F 30.7 °F 37.4 °F 87% 29.61 in 3.0 mi North 25.3 mph 39.1 mph N/A   Overcast
8:55 PM 39.2 °F 27.8 °F 37.4 °F 93% 29.62 in 5.0 mi North 27.6 mph 41.4 mph 0.03 in   Overcast
9:15 PM 39.2 °F 27.2 °F 35.6 °F 87% 29.62 in 6.0 mi North 31.1 mph 39.1 mph N/A Rain Light Rain
9:35 PM 37.4 °F 25.0 °F 35.6 °F 93% 29.63 in 4.0 mi North 29.9 mph 39.1 mph N/A Rain Light Rain
9:55 PM 37.4 °F 24.4 °F 35.6 °F 93% 29.61 in 4.0 mi North 33.4 mph 43.7 mph 0.02 in   Overcast
10:15 PM 37.4 °F 25.6 °F 35.6 °F 93% 29.64 in 4.0 mi NNW 26.5 mph 42.6 mph N/A Rain Light Rain
10:35 PM 37.4 °F 26.1 °F 35.6 °F 93% 29.66 in 6.0 mi North 24.2 mph 44.9 mph N/A Rain Light Rain
10:55 PM 37.4 °F 26.1 °F 35.6 °F 93% 29.66 in 9.0 mi NNW 24.2 mph 36.8 mph 0.01 in Rain Light Rain
11:15 PM 35.6 °F 23.7 °F 33.8 °F 93% 29.70 in 8.0 mi NNW 24.2 mph 34.5 mph N/A   Overcast
11:35 PM 35.6 °F 24.2 °F 33.8 °F 93% 29.71 in 9.0 mi NNW 21.9 mph 38.0 mph N/A   Overcast
11:55 PM 35.6 °F 22.3 °F 33.8 °F 93% 29.73 in 5.0 mi NNW 31.1 mph 38.0 mph N/A Rain Light Rain